Retour au catalogue

STARLINK-5431

ActifCommunicationsVLEO
NORAD 54792·PAYLOAD·🇺🇸 United States

Lancé Dec 17, 2022 depuis Cape Canaveral Space Force Station

Loading…

Prochains Passages (prochaines 24 heures)

TLE

FraisSource: CelesTrak SupGP

Époque: Sep 14, 2026, 21:52 UTC

1 54792C 22175AL  26257.91159722  .00041769  00000+0  13438-2 0  2576
2 54792  53.1584 263.9935 0001363  78.2051  96.4462 15.31665931    10

Suivez STARLINK-5431 en temps réel avec AllMySat

Download on the App Store